This is the latest recevied weather packets stored in our database for station/object IU0SZS-10. If no packets are shown the sender has not sent any weather packets the latest 1 day(s).
| Time | Temp. | Humidity | Pressure | Rain* | Wind** | Luminosity | Snow |
|---|---|---|---|---|---|---|---|
| 1788611721 | 30.56° C | 23% | 921.5 hPa | - | - | - | - |
| 1788611675 | 30.56° C | 23% | 921.5 hPa | - | - | - | - |
| 1788610774 | 30.56° C | 21% | 921.6 hPa | - | - | - | - |
| 1788609874 | 30° C | 22% | 921.9 hPa | - | - | - | - |
| 1788608974 | 29.44° C | 24% | 921.9 hPa | - | - | - | - |
| 1788608074 | 29.44° C | 23% | 922.2 hPa | - | - | - | - |
| 1788607174 | 28.33° C | 25% | 922 hPa | - | - | - | - |
| 1788606274 | 28.33° C | 26% | 922.1 hPa | - | - | - | - |
| 1788605373 | 29.44° C | 25% | 922.2 hPa | - | - | - | - |
| 1788604473 | 29.44° C | 29% | 922.1 hPa | - | - | - | - |
| 1788603573 | 28.33° C | 29% | 922 hPa | - | - | - | - |
| 1788602673 | 27.22° C | 30% | 921.9 hPa | - | - | - | - |
| 1788601773 | 27.22° C | 33% | 922.2 hPa | - | - | - | - |
| 1788600873 | 27.22° C | 31% | 922.1 hPa | - | - | - | - |
| 1788599972 | 26.67° C | 34% | 922 hPa | - | - | - | - |
| 1788599072 | 25.56° C | 41% | 922 hPa | - | - | - | - |
| 1788598172 | 24.44° C | 40% | 921.8 hPa | - | - | - | - |
| 1788597272 | 23.89° C | 42% | 921.7 hPa | - | - | - | - |
| 1788596372 | 23.33° C | 43% | 921.7 hPa | - | - | - | - |
| 1788595472 | 23.33° C | 45% | 921.6 hPa | - | - | - | - |
| 1788594571 | 22.78° C | 45% | 921.6 hPa | - | - | - | - |
| 1788593671 | 22.22° C | 45% | 921.6 hPa | - | - | - | - |
| 1788592771 | 21.67° C | 47% | 921.6 hPa | - | - | - | - |
| 1788591933 | 21.67° C | 48% | 921.4 hPa | - | - | - | - |
| 1788591871 | 21.67° C | 48% | 921.4 hPa | - | - | - | - |
* Rain since midnight (hover to see other rain measurements)
** Current wind speed in m/s (hover to see current wind gust speed)